Theta_e
286 285 285 285 285 285 284 284 284 284 284 284 284 284 284 284 286 290 292 292 293 293 294 294 294 295 295 295 294 294 294 293 294 296 294 294 293 292 291 290 290 289 290
286 285 285 285 284 284 284 284 284 284 284 284 284 284 283 283 284 284 285 287 290 290 291 292 293 293 293 293 293 293 293 293 293 294 294 292 291 291 292 291 290 289 289
286 286 285 285 285 284 284 284 284 283 283 283 284 284 284 283 283 283 283 284 284 286 289 290 290 291 292 291 291 292 291 292 292 292 293 291 290 290 289 289 289 289 289
286 286 285 285 284 284 283 283 282 282 282 282 282 282 282 282 283 283 283 283 284 285 285 286 288 289 289 290 290 290 290 291 290 291 292 289 289 289 288 287 285 287 288
288 287 286 285 284 283 283 282 282 281 281 281 280 280 280 280 281 281 283 283 284 284 284 284 285 285 288 289 289 289 289 289 290 289 290 287 287 287 286 286 285 284 284
286 285 285 284 283 282 282 281 281 281 280 280 279 279 279 279 280 281 282 283 283 283 284 284 284 284 284 285 288 289 289 289 288 289 290 290 288 287 286 286 285 284 283
284 284 282 282 281 281 281 281 280 280 279 279 279 278 278 278 278 279 280 280 281 282 283 283 284 284 285 285 285 287 288 289 290 289 289 290 290 288 286 285 284 286 287
281 280 279 279 279 278 278 277 277 277 277 277 278 278 278 277 277 278 278 278 279 279 280 282 283 283 284 285 285 286 286 287 288 289 290 289 289 290 288 287 286 286 286
277 277 277 275 274 273 272 272 272 272 272 273 274 275 276 276 276 276 277 276 276 276 277 278 280 281 283 284 285 286 286 286 286 287 288 289 290 289 289 285 285 284 285
275 274 272 270 270 269 268 267 267 268 268 269 269 270 270 270 271 272 273 273 274 274 275 276 277 279 281 283 284 285 286 286 286 286 286 287 288 289 289 287 285 285 285
271 269 268 267 266 265 265 265 265 265 265 265 265 266 266 267 268 269 270 272 273 274 274 275 276 278 280 282 283 285 285 286 286 286 285 286 286 287 288 289 286 286 286
268 266 266 265 264 264 263 263 263 263 263 264 264 264 265 266 266 267 269 270 271 272 273 274 275 276 278 280 282 284 286 287 287 287 286 286 286 286 286 287 287 285 286
265 265 264 264 264 263 263 262 263 263 263 263 264 264 264 265 265 266 267 268 269 269 270 270 272 274 275 279 282 284 285 286 287 287 287 286 285 285 286 286 287 285 284
264 264 263 263 263 263 263 262 263 263 263 263 264 264 265 265 266 267 267 267 267 269 269 270 270 272 274 275 279 283 285 285 285 286 287 286 285 285 285 285 284 283 281
263 263 263 263 263 262 262 262 263 263 264 266 267 268 269 269 269 270 272 272 272 272 272 271 271 273 274 274 279 282 282 283 283 284 286 286 285 284 284 283 283 280 282
263 263 262 263 263 262 262 262 263 264 266 267 268 269 269 270 271 271 272 273 273 273 273 273 273 273 273 274 275 280 280 281 282 284 286 286 284 283 283 282 282 280 281
262 262 262 262 262 262 262 262 263 263 265 266 267 268 269 270 271 272 273 273 274 274 274 273 272 272 273 274 276 277 281 282 283 284 285 285 283 282 282 281 280 280 280
262 262 261 262 262 262 262 262 263 264 264 264 265 267 269 269 270 272 273 274 273 273 273 272 272 272 273 274 276 278 279 281 282 283 284 284 283 282 281 280 279 279 279
262 261 261 261 262 261 262 262 263 264 264 264 265 266 265 266 268 269 269 269 270 270 271 272 272 272 272 273 276 277 279 281 281 282 283 283 281 280 279 279 278 278 278
262 261 261 261 260 261 261 262 263 263 264 264 264 264 264 267 265 264 265 266 267 268 268 268 271 273 273 274 275 277 279 280 281 281 281 280 279 279 278 278 277 277 276
261 261 261 260 260 260 261 261 262 263 263 263 263 263 267 265 263 263 264 264 265 265 266 268 274 274 276 277 277 279 281 281 280 279 278 278 277 277 277 276 275 275 275
261 261 261 260 260 260 260 261 261 262 263 263 263 263 265 263 263 263 263 263 263 264 264 266 268 270 272 275 277 279 279 278 277 277 276 275 275 274 274 274 274 273 272
261 260 260 261 260 260 260 260 260 261 262 262 262 263 263 263 263 263 262 262 262 263 264 265 266 268 270 272 273 274 274 273 274 274 274 273 273 272 272 272 272 272 272
260 260 260 260 259 260 260 260 260 260 260 261 261 261 262 262 262 262 262 262 262 263 263 264 265 266 268 269 270 271 272 272 272 272 273 272 271 271 271 271 270 270 270
260 260 260 259 259 259 259 259 259 260 260 260 260 260 260 261 261 261 262 262 263 263 264 264 264 265 266 267 268 269 269 270 271 271 271 271 270 270 269 269 269 269 269
260 260 259 259 259 259 258 258 259 259 259 259 259 259 259 260 260 260 261 262 262 263 264 265 265 266 267 267 267 267 268 268 269 269 269 269 269 268 268 268 268 268 268
Wind_Speed
13 15 16 17 19 20 22 23 24 24 23 22 21 22 22 22 19 16 15 19 22 24 26 29 34 35 38 40 39 40 39 36 22 30 30 33 36 39 43 46 46 44 42
9 10 11 12 15 19 20 21 25 26 25 26 27 26 26 23 22 21 17 16 19 23 24 26 29 32 37 39 38 37 35 34 32 28 30 31 38 41 43 45 47 47 47
12 14 16 17 18 20 24 25 27 26 26 27 26 27 28 31 33 30 24 20 20 22 25 26 29 30 33 34 36 38 33 33 34 33 30 29 37 37 39 41 45 47 47
10 15 20 23 23 24 26 26 26 27 28 28 28 29 30 31 31 33 36 31 26 24 24 26 28 30 33 33 33 34 35 33 30 32 31 28 29 32 37 33 29 42 47
15 20 27 30 32 32 31 31 32 31 30 30 28 30 33 33 31 30 31 32 34 35 34 32 30 30 32 33 32 31 30 31 30 26 29 23 26 18 30 27 30 29 37
12 19 28 30 33 36 39 40 36 32 30 31 32 31 32 31 27 27 28 31 32 31 34 35 37 35 33 33 35 37 35 31 31 29 29 29 30 29 27 30 28 19 8
19 26 27 29 32 33 35 35 33 34 37 37 36 34 33 33 31 32 32 33 33 31 32 32 32 33 35 36 34 33 36 39 41 37 35 39 30 32 29 30 31 30 28
21 22 24 23 24 29 33 33 36 35 36 37 39 40 39 43 40 37 35 35 33 34 35 36 35 37 36 35 34 34 36 36 42 45 43 45 41 35 39 42 40 44 34
21 19 18 25 29 29 30 31 33 34 37 38 38 39 37 42 42 42 40 36 35 38 38 38 38 40 40 36 34 33 34 36 34 38 46 48 41 39 38 34 33 24 20
17 22 26 24 25 28 29 31 31 31 35 35 39 38 39 43 44 44 43 39 38 37 40 41 42 43 44 43 39 37 33 39 30 32 36 43 47 48 39 42 38 34 30
23 23 23 26 31 30 30 28 30 31 32 33 35 35 35 36 39 37 36 37 35 35 36 37 38 40 43 44 43 41 41 40 31 31 34 34 34 38 42 38 44 42 35
21 25 30 32 31 28 30 31 28 28 30 31 31 32 29 30 31 32 32 33 36 38 38 39 41 44 46 47 45 44 43 42 34 30 29 30 31 32 36 41 42 44 43
23 27 30 30 29 28 28 29 28 27 26 27 27 28 31 31 32 34 35 34 34 36 37 43 47 46 43 48 47 47 42 36 32 30 29 32 33 33 30 33 36 39 38
25 26 24 23 26 25 26 27 27 27 26 27 28 30 32 31 31 30 31 33 37 38 39 41 40 38 41 43 46 38 37 32 31 31 31 30 28 26 28 29 27 27 21
25 24 22 20 22 26 25 27 27 30 30 33 32 32 32 31 33 39 41 39 35 34 37 34 32 30 29 32 29 25 23 26 29 34 31 26 25 25 27 29 29 25 23
25 21 22 23 24 25 26 27 31 30 33 34 36 37 37 39 42 41 41 41 40 40 36 30 28 27 26 26 28 22 23 27 31 31 29 27 25 26 26 24 27 26 24
24 24 23 23 24 25 25 25 26 37 35 33 33 34 35 38 39 40 39 37 35 36 27 26 26 27 26 24 25 27 24 24 26 27 26 26 26 26 27 26 25 25 22
23 24 21 21 24 26 25 26 27 26 27 36 40 35 35 35 36 38 35 35 30 31 29 28 26 27 22 24 24 22 25 25 24 24 23 23 26 27 23 25 26 26 24
21 22 22 22 23 25 26 25 25 26 26 29 32 34 33 35 35 33 28 23 23 24 26 26 27 26 25 27 25 27 26 24 23 23 25 22 23 25 25 27 27 28 25
19 19 21 21 22 23 22 22 24 25 26 26 27 28 34 30 27 28 26 24 24 25 27 26 27 26 26 27 29 28 28 28 22 23 21 22 24 26 24 23 24 23 23
19 22 20 20 21 21 21 20 22 23 24 25 26 28 31 27 25 24 25 25 25 27 29 29 19 19 24 26 28 27 22 17 19 19 19 20 21 20 19 21 22 22 21
16 18 20 21 21 21 21 20 20 21 23 24 27 28 28 25 24 25 25 25 26 26 27 26 23 22 17 13 5 7 12 15 16 17 17 18 19 19 21 20 20 21 21
13 16 18 19 19 20 20 21 20 20 22 23 25 25 27 26 26 26 26 27 28 28 30 29 29 26 22 17 11 5 7 9 12 17 20 20 20 20 21 20 21 20 20
10 12 15 16 17 19 19 20 20 21 21 21 23 24 25 25 26 27 28 28 29 29 30 30 29 27 24 20 17 12 6 6 10 14 18 21 20 21 20 19 18 19 21
9 11 13 14 15 17 18 19 20 20 21 20 22 23 24 24 25 27 29 29 29 29 30 30 29 28 27 23 19 14 10 6 7 10 14 19 21 22 20 19 20 20 21
8 9 11 11 13 15 16 18 19 20 21 22 22 23 24 25 25 26 28 29 29 29 28 28 27 27 28 25 23 19 13 10 9 10 15 19 23 23 22 22 22 21 21
Wind_Direction
31 20 12 11 5 1 354 352 353 353 352 353 353 348 346 342 339 330 317 300 290 284 282 280 275 270 265 264 264 258 254 249 253 259 254 243 234 230 229 229 233 231 232
25 20 10 359 350 345 343 341 338 336 336 335 334 335 334 330 326 323 321 311 298 292 289 285 281 280 274 267 261 258 253 249 249 257 255 241 232 232 232 229 230 229 231
3 358 350 350 340 333 334 330 329 327 326 323 321 320 320 320 319 315 312 311 308 304 298 289 283 278 273 271 266 261 256 253 249 249 252 247 237 229 222 227 227 227 230
341 344 343 340 332 327 326 323 320 319 318 318 316 310 309 309 306 305 310 311 307 303 299 295 289 282 274 268 263 260 257 251 244 240 246 233 227 228 221 211 213 223 226
320 326 329 326 326 325 324 320 319 317 314 309 302 302 302 301 298 298 296 297 300 301 299 293 289 285 280 275 264 260 252 248 246 240 244 230 220 203 206 207 214 214 219
316 319 319 318 317 318 318 318 316 313 310 307 301 297 293 290 287 289 289 287 286 284 283 286 287 286 283 277 269 261 254 248 242 241 244 240 234 223 209 206 203 197 219
319 315 313 312 310 310 309 309 307 308 307 304 300 297 292 290 291 292 293 290 285 281 278 274 272 271 275 277 275 265 256 249 247 248 243 243 243 227 212 206 208 213 221
318 313 310 309 307 306 307 306 304 304 300 298 297 296 295 294 295 294 295 293 289 284 279 275 270 269 265 263 263 261 259 255 252 244 247 250 247 243 231 218 217 221 225
318 313 309 310 309 308 304 303 300 300 297 295 292 291 290 289 290 291 295 295 292 287 282 278 273 271 266 263 257 252 252 253 252 249 251 246 248 246 244 218 213 209 224
309 308 311 310 307 305 302 300 299 296 293 293 292 291 291 291 292 293 293 291 287 285 284 280 275 270 269 265 259 252 248 250 248 249 249 247 245 241 241 230 216 210 220
308 311 309 309 310 308 303 300 299 296 294 292 291 293 294 294 296 298 296 290 285 282 278 277 275 273 270 265 259 253 247 252 248 248 248 246 242 240 234 232 225 223 220
314 313 316 320 318 310 305 302 299 295 292 292 293 294 295 295 295 298 298 293 290 288 286 283 278 276 274 269 262 256 253 252 247 244 240 239 237 234 231 229 229 226 229
319 320 321 321 316 312 304 302 300 297 293 293 294 294 294 292 289 291 292 292 291 287 285 284 281 284 288 277 269 255 252 248 244 241 234 231 233 235 234 227 228 220 225
324 323 317 308 307 309 305 298 295 294 294 293 290 287 286 287 286 286 281 274 271 270 269 272 276 279 280 283 269 255 243 240 242 245 242 234 229 224 221 217 210 204 202
327 317 311 306 308 306 298 294 294 292 292 291 292 295 297 295 295 295 295 296 291 283 276 267 268 275 278 279 276 241 232 236 245 247 243 226 217 210 211 205 202 190 200
320 314 310 311 311 304 300 299 303 301 302 301 301 301 301 298 301 301 299 297 294 289 282 277 276 268 267 278 282 252 247 243 241 241 234 230 215 203 203 199 198 192 196
318 310 308 312 309 304 303 302 303 310 311 309 309 309 307 304 304 303 301 299 296 294 283 276 264 266 264 262 264 271 242 240 241 238 236 224 206 202 197 195 192 186 189
321 318 306 310 306 302 302 303 305 307 309 312 316 319 317 317 315 312 309 305 299 290 276 267 262 261 270 251 258 247 257 250 232 231 231 213 203 201 195 190 188 187 188
327 318 317 314 308 304 304 306 308 310 311 311 315 321 325 322 321 323 320 319 308 298 292 281 262 252 252 253 256 252 254 236 230 230 231 215 198 188 192 192 190 191 183
333 326 324 324 312 308 309 312 318 320 320 321 321 322 322 328 336 329 330 327 323 316 314 304 282 254 249 246 248 250 249 240 230 226 217 195 191 189 189 185 183 178 178
335 331 340 333 322 312 312 318 321 322 323 324 324 328 336 344 329 329 330 333 330 328 326 329 331 264 264 262 238 238 225 226 214 202 188 182 176 172 175 175 175 175 167
333 340 343 343 335 325 324 330 328 326 326 328 331 337 348 346 343 340 340 341 340 343 346 349 354 12 20 26 7 234 198 180 179 174 163 158 154 151 151 151 153 153 152
346 348 351 349 342 342 345 350 341 336 334 336 338 341 348 350 349 350 350 351 354 1 12 16 18 22 28 34 38 63 111 124 148 157 143 141 139 140 144 145 147 149 153
352 357 360 352 349 349 351 349 349 345 345 344 346 347 349 351 353 355 357 1 6 13 22 27 29 31 33 38 42 47 68 123 148 151 156 144 134 133 134 136 142 142 140
347 0 3 357 358 354 354 358 356 354 352 351 349 350 351 353 358 3 6 9 14 19 28 32 36 38 38 39 43 50 61 87 130 146 146 142 131 128 128 129 130 130 129
343 352 352 352 355 355 359 357 355 357 355 355 357 0 2 1 3 6 12 16 18 25 31 36 40 45 48 43 41 46 54 74 102 124 135 136 129 121 123 121 120 118 121